| time (UTC) | temp F | wind direction | speed knots | gust knots | rain 1hr in | rain 24hr in | rain mn in | humidity % | barometer mb |
| 20260503211255 | 59 | 249 | 2.6 | 4.3 | 0.00 | 0.00 | 0.00 | 42 | 1013.8 |
| 20260503210755 | 59 | 92 | 1.7 | 1.7 | 0.00 | 0.00 | 0.00 | 40 | 1013.7 |
| 20260503210254 | 59 | 317 | 2.6 | 2.6 | 0.00 | 0.00 | 0.00 | 40 | 1013.9 |
| 20260503205748 | 60 | 289 | 2.6 | 2.6 | 0.00 | 0.00 | 0.00 | 40 | 1014.0 |
| 20260503205245 | 59 | 297 | 1.7 | 1.7 | 0.00 | 0.00 | 0.00 | 42 | 1013.9 |
| 20260503204741 | 58 | 309 | 2.6 | 4.3 | 0.00 | 0.00 | 0.00 | 42 | 1014.1 |
| 20260503204239 | 57 | 273 | 2.6 | 2.6 | 0.00 | 0.00 | 0.00 | 41 | 1014.1 |
| 20260503203737 | 57 | 295 | 6.1 | 7.0 | 0.00 | 0.00 | 0.00 | 40 | 1014.5 |
| 20260503203234 | 58 | 56 | 0.9 | 0.9 | 0.00 | 0.00 | 0.00 | 41 | 1014.2 |
| 20260503202731 | 58 | 308 | 1.7 | 1.7 | 0.00 | 0.00 | 0.00 | 41 | 1014.4 |
| 20260503202229 | 59 | 216 | 2.6 | 2.6 | 0.00 | 0.00 | 0.00 | 40 | 1014.6 |
| 20260503201726 | 57 | 46 | 0.0 | 0.9 | 0.00 | 0.00 | 0.00 | 43 | 1014.5 |
| 20260503201223 | 58 | 302 | 2.6 | 4.3 | 0.00 | 0.00 | 0.00 | 39 | 1014.5 |
| 20260503200719 | 57 | 326 | 2.6 | 2.6 | 0.00 | 0.00 | 0.00 | 40 | 1014.4 |
| 20260503200216 | 59 | 263 | 3.5 | 4.3 | 0.00 | 0.00 | 0.00 | 39 | 1014.5 |
| 20260503195713 | 59 | 264 | 3.5 | 4.3 | 0.00 | 0.00 | 0.00 | 39 | 1014.6 |
| 20260503195210 | 58 | 357 | 0.9 | 1.7 | 0.00 | 0.00 | 0.00 | 41 | 1014.7 |
| 20260503194707 | 58 | 53 | 0.9 | 0.9 | 0.00 | 0.00 | 0.00 | 41 | 1014.8 |
| 20260503194203 | 57 | 121 | 1.7 | 1.7 | 0.00 | 0.00 | 0.00 | 40 | 1014.7 |
| 20260503193659 | 58 | 264 | 4.3 | 6.1 | 0.00 | 0.00 | 0.00 | 39 | 1015.1 |
| 20260503193155 | 58 | 303 | 1.7 | 2.6 | 0.00 | 0.00 | 0.00 | 41 | 1015.0 |
| 20260503192651 | 58 | 294 | 4.3 | 4.3 | 0.00 | 0.00 | 0.00 | 42 | 1014.9 |
| 20260503192147 | 56 | 334 | 1.7 | 2.6 | 0.00 | 0.00 | 0.00 | 42 | 1015.0 |
| 20260503191644 | 56 | 356 | 0.9 | 1.7 | 0.00 | 0.00 | 0.00 | 44 | 1015.0 |
| 20260503191141 | 56 | 293 | 2.6 | 2.6 | 0.00 | 0.00 | 0.00 | 43 | 1015.4 |
| 20260503190638 | 58 | 331 | 0.9 | 1.7 | 0.00 | 0.00 | 0.00 | 43 | 1015.4 |
| 20260503190135 | 57 | 214 | 2.6 | 2.6 | 0.00 | 0.00 | 0.00 | 42 | 1015.5 |
| 20260503185632 | 57 | 285 | 4.3 | 5.2 | 0.00 | 0.00 | 0.00 | 44 | 1015.4 |
| 20260503185126 | 57 | 284 | 4.3 | 5.2 | 0.00 | 0.00 | 0.00 | 42 | 1015.6 |
| 20260503184622 | 55 | 301 | 2.6 | 2.6 | 0.00 | 0.00 | 0.00 | 43 | 1015.7 |
| 20260503184119 | 56 | 272 | 1.7 | 2.6 | 0.00 | 0.00 | 0.00 | 43 | 1015.6 |
| 20260503183615 | 57 | 228 | 3.5 | 6.1 | 0.00 | 0.00 | 0.00 | 43 | 1015.8 |
| 20260503183113 | 58 | 180 | 2.6 | 2.6 | 0.00 | 0.00 | 0.00 | 42 | 1015.7 |
| 20260503182611 | 57 | 259 | 2.6 | 2.6 | 0.00 | 0.00 | 0.00 | 43 | 1015.8 |
| 20260503182109 | 57 | 282 | 2.6 | 2.6 | 0.00 | 0.00 | 0.00 | 41 | 1015.8 |
| 20260503181605 | 57 | 291 | 2.6 | 4.3 | 0.00 | 0.00 | 0.00 | 43 | 1015.9 |
| 20260503181102 | 56 | 357 | 1.7 | 2.6 | 0.00 | 0.00 | 0.00 | 45 | 1015.9 |
| 20260503180559 | 55 | 23 | 0.9 | 0.9 | 0.00 | 0.00 | 0.00 | 45 | 1016.0 |
| 20260503180057 | 55 | 247 | 1.7 | 2.6 | 0.00 | 0.00 | 0.00 | 45 | 1016.2 |
| 20260503175554 | 55 | 274 | 2.6 | 2.6 | 0.00 | 0.00 | 0.00 | 45 | 1015.9 |
| 20260503175051 | 56 | 260 | 3.5 | 4.3 | 0.00 | 0.00 | 0.00 | 44 | 1016.3 |
| 20260503174548 | 56 | 269 | 2.6 | 2.6 | 0.00 | 0.00 | 0.00 | 44 | 1016.1 |
| 20260503174044 | 55 | 281 | 3.5 | 4.3 | 0.00 | 0.00 | 0.00 | 43 | 1016.3 |
| 20260503173539 | 55 | 290 | 4.3 | 5.2 | 0.00 | 0.00 | 0.00 | 42 | 1016.3 |
| 20260503173036 | 56 | 83 | 1.7 | 2.6 | 0.00 | 0.00 | 0.00 | 44 | 1016.3 |
| 20260503172534 | 56 | 313 | 3.5 | 4.3 | 0.00 | 0.00 | 0.00 | 42 | 1016.5 |
| 20260503172030 | 55 | 293 | 1.7 | 2.6 | 0.00 | 0.00 | 0.00 | 45 | 1016.4 |
| 20260503171527 | 56 | 357 | 4.3 | 6.1 | 0.00 | 0.00 | 0.00 | 41 | 1016.4 |
| 20260503171024 | 53 | 15 | 1.7 | 1.7 | 0.00 | 0.00 | 0.00 | 43 | 1016.3 |
| 20260503170520 | 54 | 0 | 1.7 | 2.6 | 0.00 | 0.00 | 0.00 | 44 | 1016.8 |
| 20260503150913 | 49 | 129 | 1.7 | 2.6 | 0.00 | 0.00 | 0.00 | 48 | 1017.3 |
| 20260503150409 | 49 | 271 | 3.5 | 6.1 | 0.00 | 0.00 | 0.00 | 49 | 1017.7 |
| 20260503131303 | 41 | 283 | 1.7 | 1.7 | 0.00 | 0.00 | 0.00 | 79 | 1018.3 |
| 20260503130800 | 41 | 325 | 1.7 | 2.6 | 0.00 | 0.00 | 0.00 | 79 | 1018.1 |
| 20260503130257 | 40 | 333 | 1.7 | 1.7 | 0.00 | 0.00 | 0.00 | 81 | 1018.3 |
| 20260503120218 | 34 | 353 | 0.0 | 0.0 | 0.00 | 0.00 | 0.00 | 99 | 1017.8 |
| 20260503110645 | 31 | 355 | 0.0 | 0.0 | 0.00 | 0.00 | 0.00 | 99 | 1017.4 |
| 20260503110142 | 31 | 355 | 0.0 | 0.0 | 0.00 | 0.00 | 0.00 | 99 | 1017.4 |
| 20260503100109 | 31 | 355 | 0.0 | 0.0 | 0.00 | 0.00 | 0.00 | 99 | 1016.8 |
| 20260503081452 | 31 | 355 | 0.0 | 0.0 | 0.00 | 0.00 | 0.00 | 99 | 1016.8 |
| 20260503080949 | 31 | 355 | 0.0 | 0.0 | 0.00 | 0.00 | 0.00 | 99 | 1016.5 |
| 20260503080446 | 31 | 355 | 0.0 | 0.0 | 0.00 | 0.00 | 0.00 | 99 | 1016.8 |
| 20260503072922 | 32 | 355 | 0.0 | 0.0 | 0.00 | 0.00 | 0.00 | 99 | 1016.6 |
| 20260503072419 | 32 | 355 | 0.0 | 0.0 | 0.00 | 0.00 | 0.00 | 99 | 1016.4 |
| 20260503071916 | 32 | 355 | 0.0 | 0.0 | 0.00 | 0.00 | 0.00 | 99 | 1016.3 |
| 20260503071414 | 33 | 355 | 0.0 | 0.0 | 0.00 | 0.00 | 0.00 | 99 | 1016.4 |
| 20260503070909 | 33 | 355 | 0.0 | 0.0 | 0.00 | 0.00 | 0.00 | 99 | 1016.3 |
| 20260503070407 | 33 | 355 | 0.0 | 0.0 | 0.00 | 0.00 | 0.00 | 99 | 1016.6 |
| 20260503060333 | 33 | 355 | 0.0 | 0.0 | 0.00 | 0.00 | 0.00 | 99 | 1016.5 |
| 20260503054821 | 33 | 355 | 0.0 | 0.0 | 0.00 | 0.00 | 0.00 | 99 | 1016.6 |
| 20260503054316 | 0 | 0.0 | 0.0 | 0.00 | 0.00 | 0.00 | 1016.9 | ||
| 20260503053814 | 0 | 0.0 | 0.0 | 0.00 | 0.00 | 0.00 | 1016.4 | ||
| 20260503053313 | 33 | 355 | 0.0 | 0.0 | 0.00 | 0.00 | 0.00 | 99 | 1016.5 |
| 20260503052808 | 33 | 355 | 0.0 | 0.0 | 0.00 | 0.00 | 0.00 | 99 | 1016.6 |
| 20260503052306 | 33 | 355 | 0.0 | 0.0 | 0.00 | 0.00 | 0.00 | 99 | 1016.9 |
| 20260503051801 | 33 | 355 | 0.0 | 0.0 | 0.00 | 0.00 | 0.00 | 99 | 1016.9 |
| 20260503051258 | 0 | 0.0 | 0.0 | 0.00 | 0.00 | 0.00 | 1017.0 | ||
| 20260503050755 | 33 | 355 | 0.0 | 0.0 | 0.00 | 0.00 | 0.00 | 98 | 1017.0 |
| 20260503050251 | 33 | 355 | 0.0 | 0.0 | 0.00 | 0.00 | 0.00 | 98 | 1017.1 |
| 20260503045749 | 0 | 0.0 | 0.0 | 0.00 | 0.00 | 0.00 | 1017.0 | ||
| 20260503045247 | 0 | 0.0 | 0.0 | 0.00 | 0.00 | 0.00 | 1017.1 | ||
| 20260503044742 | 0 | 0.0 | 0.0 | 0.00 | 0.00 | 0.00 | 1017.1 | ||
| 20260503044239 | 0 | 0.0 | 0.0 | 0.00 | 0.00 | 0.00 | 1017.1 | ||
| 20260503043736 | 0 | 0.0 | 0.0 | 0.00 | 0.00 | 0.00 | 1017.0 | ||
| 20260503043228 | 33 | 355 | 0.0 | 0.0 | 0.00 | 0.05 | 0.05 | 98 | 1017.0 |
| 20260503042724 | 33 | 355 | 0.0 | 0.0 | 0.00 | 0.05 | 0.05 | 98 | 1017.0 |
| 20260503042221 | 33 | 355 | 0.0 | 0.0 | 0.00 | 0.05 | 0.05 | 98 | 1017.1 |
| 20260503041716 | 33 | 355 | 0.0 | 0.0 | 0.00 | 0.05 | 0.05 | 97 | 1016.9 |
| 20260503041215 | 32 | 355 | 0.0 | 0.0 | 0.00 | 0.05 | 0.05 | 97 | 1017.1 |
| 20260503040712 | 32 | 355 | 0.0 | 0.0 | 0.00 | 0.05 | 0.05 | 97 | 1017.1 |
| 20260503040209 | 32 | 355 | 0.0 | 0.0 | 0.00 | 0.05 | 0.05 | 97 | 1017.2 |
| 20260503035706 | 33 | 355 | 0.0 | 0.0 | 0.00 | 0.05 | 0.05 | 97 | 1017.1 |
| 20260503035203 | 33 | 355 | 0.0 | 0.0 | 0.00 | 0.05 | 0.05 | 96 | 1017.3 |
| 20260503034701 | 33 | 355 | 0.0 | 0.0 | 0.00 | 0.05 | 0.05 | 96 | 1017.1 |
| 20260503034157 | 33 | 355 | 0.0 | 0.0 | 0.00 | 0.05 | 0.05 | 96 | 1016.9 |
| 20260503033655 | 33 | 355 | 0.0 | 0.0 | 0.00 | 0.05 | 0.05 | 96 | 1017.1 |
| 20260503033152 | 33 | 355 | 0.0 | 0.0 | 0.00 | 0.05 | 0.05 | 96 | 1017.2 |
| 20260503032650 | 33 | 355 | 0.0 | 0.0 | 0.00 | 0.05 | 0.05 | 95 | 1017.2 |
| 20260503032149 | 33 | 355 | 0.0 | 0.0 | 0.00 | 0.05 | 0.05 | 95 | 1017.2 |
| 20260503031645 | 34 | 355 | 0.0 | 0.0 | 0.00 | 0.05 | 0.05 | 95 | 1017.0 |
| 20260503031143 | 34 | 355 | 0.0 | 0.0 | 0.00 | 0.05 | 0.05 | 95 | 1016.9 |
| 20260503030633 | 34 | 354 | 0.0 | 0.0 | 0.00 | 0.05 | 0.05 | 95 | 1017.0 |
| 20260503030130 | 35 | 355 | 0.0 | 0.0 | 0.00 | 0.05 | 0.05 | 93 | 1017.0 |
| 20260503025627 | 35 | 355 | 0.0 | 0.0 | 0.00 | 0.05 | 0.05 | 93 | 1017.4 |
| 20260503025125 | 35 | 354 | 0.0 | 0.0 | 0.00 | 0.05 | 0.05 | 93 | 1017.3 |
| 20260503024621 | 35 | 354 | 0.0 | 0.0 | 0.00 | 0.05 | 0.05 | 92 | 1017.1 |
| 20260503024118 | 35 | 354 | 0.0 | 0.0 | 0.00 | 0.05 | 0.05 | 92 | 1017.2 |
| 20260503023615 | 35 | 354 | 0.0 | 0.0 | 0.00 | 0.05 | 0.05 | 92 | 1017.2 |
| 20260503023113 | 36 | 354 | 0.0 | 0.0 | 0.00 | 0.05 | 0.05 | 92 | 1017.4 |
| 20260503022608 | 36 | 354 | 0.0 | 0.0 | 0.00 | 0.05 | 0.05 | 92 | 1017.4 |
| 20260503022103 | 36 | 354 | 0.0 | 0.0 | 0.00 | 0.05 | 0.05 | 92 | 1017.3 |
| 20260503021601 | 37 | 354 | 0.0 | 0.0 | 0.00 | 0.05 | 0.05 | 91 | 1017.3 |
| 20260503021057 | 37 | 354 | 0.0 | 0.0 | 0.00 | 0.05 | 0.05 | 91 | 1017.3 |
| 20260503020554 | 37 | 354 | 0.0 | 0.0 | 0.00 | 0.05 | 0.05 | 90 | 1017.1 |
| 20260503020051 | 37 | 354 | 0.0 | 0.0 | 0.00 | 0.05 | 0.05 | 89 | 1017.2 |
| 20260503015547 | 37 | 354 | 0.0 | 0.0 | 0.00 | 0.05 | 0.05 | 88 | 1017.2 |
| 20260503015045 | 37 | 354 | 0.0 | 0.0 | 0.00 | 0.05 | 0.05 | 86 | 1017.2 |
| 20260503014540 | 37 | 354 | 0.0 | 0.0 | 0.00 | 0.05 | 0.05 | 85 | 1017.0 |
| 20260503014039 | 38 | 354 | 0.0 | 0.0 | 0.00 | 0.05 | 0.05 | 84 | 1017.2 |
| 20260503013536 | 38 | 354 | 0.0 | 0.0 | 0.00 | 0.05 | 0.05 | 84 | 1017.2 |
| 20260503013034 | 38 | 354 | 0.0 | 0.0 | 0.00 | 0.05 | 0.05 | 83 | 1017.3 |
| 20260503012531 | 39 | 354 | 0.0 | 0.0 | 0.00 | 0.05 | 0.05 | 81 | 1017.0 |
| 20260503012027 | 39 | 354 | 0.0 | 0.0 | 0.00 | 0.05 | 0.05 | 80 | 1017.1 |
| 20260503011524 | 39 | 354 | 0.0 | 0.0 | 0.00 | 0.05 | 0.05 | 79 | 1017.1 |
| 20260503011021 | 39 | 354 | 0.0 | 0.0 | 0.00 | 0.05 | 0.05 | 79 | 1017.1 |
| 20260503010517 | 40 | 354 | 0.0 | 0.0 | 0.00 | 0.05 | 0.05 | 78 | 1017.1 |
| 20260503010015 | 40 | 354 | 0.0 | 0.0 | 0.00 | 0.05 | 0.05 | 77 | 1017.0 |
| 20260503005512 | 40 | 354 | 0.0 | 0.0 | 0.00 | 0.05 | 0.05 | 77 | 1017.2 |
| 20260503005009 | 40 | 354 | 0.9 | 0.9 | 0.00 | 0.05 | 0.05 | 78 | 1017.1 |
| 20260503004505 | 40 | 354 | 0.0 | 0.9 | 0.00 | 0.05 | 0.05 | 78 | 1017.0 |
| 20260503004003 | 40 | 354 | 0.9 | 0.9 | 0.00 | 0.05 | 0.05 | 78 | 1016.8 |
| 20260503003500 | 40 | 354 | 0.0 | 0.9 | 0.00 | 0.05 | 0.05 | 76 | 1016.9 |
| 20260503002957 | 40 | 352 | 0.9 | 0.9 | 0.00 | 0.05 | 0.05 | 77 | 1016.6 |
| 20260503002454 | 40 | 357 | 0.9 | 0.9 | 0.00 | 0.05 | 0.05 | 78 | 1016.5 |
| 20260503001950 | 40 | 357 | 0.0 | 0.0 | 0.00 | 0.05 | 0.05 | 80 | 1016.9 |
| 20260503001447 | 40 | 357 | 0.0 | 0.9 | 0.00 | 0.05 | 0.05 | 78 | 1016.8 |
| 20260503000944 | 40 | 357 | 0.0 | 0.0 | 0.00 | 0.05 | 0.05 | 75 | 1016.4 |
| 20260503000441 | 41 | 356 | 0.0 | 0.0 | 0.00 | 0.05 | 0.05 | 76 | 1016.4 |
| 20260502235939 | 41 | 355 | 0.9 | 0.9 | 0.00 | 0.05 | 0.05 | 74 | 1016.5 |
| 20260502235435 | 41 | 353 | 0.9 | 0.9 | 0.00 | 0.05 | 0.05 | 74 | 1016.3 |
| 20260502234933 | 41 | 358 | 0.9 | 0.9 | 0.00 | 0.05 | 0.05 | 75 | 1016.4 |
| 20260502234429 | 41 | 358 | 0.0 | 0.9 | 0.00 | 0.05 | 0.05 | 74 | 1016.3 |
| 20260502233927 | 41 | 358 | 0.9 | 0.9 | 0.00 | 0.05 | 0.05 | 75 | 1016.4 |
| 20260502233421 | 41 | 0 | 0.9 | 0.9 | 0.00 | 0.05 | 0.05 | 76 | 1016.2 |
| 20260502232919 | 41 | 0 | 0.9 | 0.9 | 0.00 | 0.05 | 0.05 | 76 | 1016.6 |
| 20260502232415 | 41 | 314 | 1.7 | 2.6 | 0.00 | 0.05 | 0.05 | 77 | 1016.4 |
| 20260502231912 | 41 | 358 | 0.9 | 0.9 | 0.00 | 0.05 | 0.05 | 78 | 1016.3 |
| 20260502231410 | 41 | 0 | 0.0 | 0.0 | 0.00 | 0.05 | 0.05 | 77 | 1016.2 |
| 20260502230908 | 41 | 330 | 1.7 | 1.7 | 0.00 | 0.05 | 0.05 | 76 | 1016.4 |
| 20260502230406 | 41 | 2 | 0.9 | 0.9 | 0.00 | 0.05 | 0.05 | 77 | 1016.4 |
| 20260502225903 | 41 | 3 | 0.9 | 0.9 | 0.00 | 0.05 | 0.05 | 77 | 1016.4 |
| 20260502225359 | 41 | 4 | 0.0 | 0.0 | 0.00 | 0.05 | 0.05 | 76 | 1016.4 |
| 20260502224856 | 41 | 3 | 0.9 | 0.9 | 0.00 | 0.05 | 0.05 | 77 | 1016.5 |
| 20260502224351 | 41 | 354 | 0.9 | 0.9 | 0.00 | 0.05 | 0.05 | 78 | 1016.4 |
| 20260502223849 | 41 | 337 | 0.9 | 1.7 | 0.00 | 0.05 | 0.05 | 76 | 1016.3 |
| 20260502223347 | 41 | 342 | 0.9 | 1.7 | 0.00 | 0.05 | 0.05 | 77 | 1016.2 |
| 20260502222844 | 41 | 307 | 1.7 | 2.6 | 0.00 | 0.05 | 0.05 | 78 | 1016.3 |
| 20260502222342 | 41 | 6 | 0.0 | 0.0 | 0.00 | 0.05 | 0.05 | 78 | 1016.6 |
| 20260502221838 | 41 | 9 | 0.9 | 1.7 | 0.00 | 0.05 | 0.05 | 77 | 1016.4 |
| 20260502221334 | 41 | 321 | 2.6 | 2.6 | 0.00 | 0.05 | 0.05 | 78 | 1016.3 |
| 20260502220832 | 41 | 11 | 0.9 | 0.9 | 0.00 | 0.05 | 0.05 | 79 | 1016.4 |
| 20260502220327 | 41 | 0 | 0.0 | 0.0 | 0.00 | 0.05 | 0.05 | 77 | 1016.3 |
| 20260502215824 | 41 | 343 | 1.7 | 1.7 | 0.00 | 0.05 | 0.05 | 77 | 1016.4 |
| 20260502215322 | 41 | 322 | 2.6 | 2.6 | 0.00 | 0.05 | 0.05 | 78 | 1016.5 |
| 20260502214818 | 41 | 313 | 2.6 | 2.6 | 0.00 | 0.05 | 0.05 | 78 | 1016.2 |
| 20260502214315 | 41 | 357 | 1.7 | 1.7 | 0.00 | 0.05 | 0.05 | 77 | 1016.1 |
| 20260502213812 | 41 | 299 | 1.7 | 1.7 | 0.00 | 0.05 | 0.05 | 79 | 1016.3 |
| 20260502213308 | 41 | 321 | 1.7 | 1.7 | 0.00 | 0.05 | 0.05 | 78 | 1016.3 |
| 20260502212808 | 41 | 355 | 0.9 | 1.7 | 0.00 | 0.05 | 0.05 | 79 | 1016.2 |
| 20260502212300 | 41 | 335 | 1.7 | 1.7 | 0.00 | 0.05 | 0.05 | 79 | 1016.2 |
| 20260502211756 | 42 | 298 | 2.6 | 2.6 | 0.00 | 0.05 | 0.05 | 77 | 1016.3 |